Weather in Kuzema

Russia / Republic of Karelia     65°21′23″N   34°15′26″E
temp.,
°C
wind,
m/s
gust,
m/s
humid.,
%
clouds,
%
prec.,
mm/h
press.,
hPa
HPBL,
m
4 march, thu
thu400:00−11nw459443 0.0 99739
03:00−12nw459426 0.0 99966
06:00−9nw479496 0.0 998152
09:00−10nw599271 0.0 998160
12:00−7nnw589079 0.1 998433
15:00−6nne469489 0.3 1000506
18:00−9n4784100 0.3 1001120
21:00−14nnw348754 0.3 100221
5 march, fri
fri500:00−14nw349154 0.1 100329
03:00−15nnw349772 0.3 100425
06:00−16nnw459477 0.0 100545
09:00−15nw459486 0.0 100787
12:00−11nnw469065 0.0 1009254
15:00−9nw348660 0.0 1010314
18:00−12w449061 0.0 101029
21:00−13wnw559253 0.0 101159
6 march, sat
sat600:00−13wnw45910 0.0 101158
03:00−15w45930 0.0 101056
06:00−16w459430 0.0 100847
09:00−15wsw459420 0.0 100681
12:00−10ssw468944 0.0 1003242
15:00−8sse7108868 0.0 998422
18:00−8sse81494100 0.1 992567
21:00−7se101594100 1.1 987694
7 march, sun
sun700:00−7se101494100 1.3 985622
03:00−7ese91494100 2.9 985603
06:00−8e101494100 1.3 987705
09:00−10ene101494100 2.8 990681
12:00−11ene101493100 1.4 994788
15:00−12ne101494100 2.4 998783
18:00−13nne101491100 0.8 1002734
21:00−17nne81493100 0.9 1005414
8 march, mon
mon800:00−19nne71394100 0.1 1008331
03:00−21n7129796 0.1 1010220
06:00−22n6119995 0.0 1012165
09:00−21n699995 0.0 1014198
12:00−18n589498 0.0 1016372
15:00−16nne469089 0.0 1017362
18:00−19n239822 0.0 101820
21:00−21nw239811 0.0 101920